User: anonymous   Login
Location: Mt. Cuba Astronomical Observatory
(39.8100°N, 75.6300°W)
Time: 15:06:53
(UTC-05:00)
Language:

Cosmos 2058 - Orbit

View from above orbital plane
View from above orbital plane
View from above satellite
View from above satellite

Ground track
Ground track

The orbit data is extracted from the following two-line orbital elements,

1 20465U 90010A   14328.15893774  .00003515  00000-0  31468-3 0  2867
2 20465 082.4932 066.8822 0016044 200.4504 159.6077 14.95478711345317
Epoch (UTC): 24 November 2014 03:48:52
Eccentricity: 0.0016044
inclination: 82.4932°
perigee height: 570 km
apogee height: 592 km
right ascension of ascending node: 66.8822°
argument of perigee: 200.4504°
revolutions per day: 14.95478711
mean anomaly at epoch: 159.6077°
orbit number at epoch: 34531

The dashed part of the orbit path shows where the satellite is in the earth's shadow,  

DLR